Regional Weather Roundup
Issued by NWS

Home | Current Version | Previous Version | Text Only | Print | Product List | Glossary Off
Versions: 1 2 3 4 5 6 7 8 9 10 11 12 13 14 15 16 17 18 19 20 21 22 23 24 25 26 27 28 29 30 31 32 33 34 35 36 37 38 39 40 41 42 43 44 45 46 47 48 49 50

000
ASUS43 KOAX 210710
RWRNE

WEATHER ROUNDUP FOR NEBRASKA
NATIONAL WEATHER SERVICE OMAHA NE
100 AM CST TUE FEB 21 2017

NOTES: SATELLITE DATA IS BEING USED TO AUGMENT CLOUD COVER ABOVE
       12000 FEET.
       "FAIR" INDICATES FEW OR NO CLOUDS BELOW 12,000 FEET WITH NO
       SIGNIFICANT WEATHER AND/OR OBSTRUCTIONS TO VISIBILITY.

  * THESE STATIONS DO NOT REPORT WEATHER SUCH AS RAIN...SNOW OR FOG.

NEZ001>004-019>022-054>056-210800-
NEBRASKA PANHANDLE

CITY           SKY/WX    TMP DP  RH WIND       PRES   REMARKS
SCOTTSBLUFF    CLEAR     40  20  44 SE3       29.93F
ALLIANCE       CLOUDY    36  26  67 SW6       29.93S WCI  31
CHADRON        CLEAR     51  26  37 SW16      29.86F
KIMBALL        CLOUDY    44  22  42 W7        29.97S
SIDNEY         CLEAR     35  19  52 SW9       29.97S WCI  28
$$

NEZ057>060-069>072-079>082-210800-
SOUTHWEST NEBRASKA

CITY           SKY/WX    TMP DP  RH WIND       PRES   REMARKS
NORTH PLATTE   CLOUDY    30  22  72 CALM      29.96S
IMPERIAL       CLOUDY    39  17  41 SW9       29.99S WCI  33
LEXINGTON      CLOUDY    29  25  86 CALM      29.97S
MCCOOK         CLOUDY    33  23  66 W10       29.98S WCI  25
OGALLALA       CLOUDY    42  16  35 W7        29.96F
$$

NEZ005>010-023>029-035>040-094-210800-
NORTH CENTRAL NEBRASKA

CITY           SKY/WX    TMP DP  RH WIND       PRES   REMARKS
VALENTINE      CLOUDY    39  25  57 SW12      29.87S WCI  32
AINSWORTH      CLOUDY    43  28  56 S12       29.90S
BROKEN BOW     CLEAR     31  26  82 CALM      29.95S
O`NEILL        CLEAR     36  30  80 S6        29.92R WCI  31
ORD            CLEAR     30  26  85 CALM      29.94R
THEDFORD       CLEAR     43  23  44 SW10      29.93S
$$

NEZ041-046>049-061>064-073>077-083>087-210800-
SOUTH CENTRAL NEBRASKA

CITY           SKY/WX    TMP DP  RH WIND       PRES   REMARKS
GRAND ISLAND   CLEAR     38  34  85 S8        29.95F WCI  32
AURORA         CLEAR     39  35  83 SW7       29.96F WCI  34
HASTINGS       CLEAR     39  31  72 S6        29.97S WCI  35
HEBRON         CLEAR     33  32  95 CALM      29.99R
HOLDREGE       CLEAR     40  29  64 SW6       29.98R
KEARNEY *      CLEAR     43  28  56 SW10      29.97S
YORK           CLEAR     36  36 100 W7        29.97R WCI  30
$$

NEZ011>018-030>034-042>045-210800-
NORTHEAST NEBRASKA

CITY           SKY/WX    TMP DP  RH WIND       PRES   REMARKS
NORFOLK        CLEAR     33  30  88 CALM      29.93S
ALBION         CLEAR     33  30  90 CALM      29.95R
BLAIR          CLEAR     44  41  88 CALM      29.96R
FREMONT        CLEAR     35  35 100 CALM      29.97R
TEKAMAH        CLEAR     35  32  88 SW5       29.97R WCI  31
WAYNE          CLEAR     31  30  97 CALM      29.93F
$$

NEZ050>053-065>068-078-088>093-210800-
SOUTHEAST NEBRASKA

CITY           SKY/WX    TMP DP  RH WIND       PRES   REMARKS
LINCOLN        CLEAR     31  29  92 N5        29.98R WCI  26
OMAHA EPPLEY   PTCLDY    37  33  85 CALM      29.96R
BEATRICE       CLEAR     35  35  98 CALM      29.97R
FALLS CITY     CLEAR     46  42  86 NW3       29.94R
NEBRASKA CITY  CLEAR     46  38  76 N8        29.96R
PLATTSMOUTH    CLEAR     41  37  84 NW3       29.96R
$$

NEZ044-045-051>053-067-210800-
OMAHA AREA

CITY           SKY/WX    TMP DP  RH WIND       PRES   REMARKS
OMAHA EPPLEY   PTCLDY    37  33  85 CALM      29.96R
BLAIR          CLEAR     44  41  88 CALM      29.96R
FREMONT        CLEAR     35  35 100 CALM      29.97R
MILLARD        CLEAR     41  39  95 CALM      29.97R
OFFUTT AFB     CLEAR     43  40  90 W6        29.97R
PLATTSMOUTH    CLEAR     41  37  84 NW3       29.96R
WAHOO          FAIR      35  34  94 CALM      29.97R
$$




USA.gov is the U.S. government's official web portal to all federal, state and local government web resources and services.